Wind_Speed
13 14 14 15 15 16 16 16 17 18 19 20 20 20 20 21 21 21 21 21 22 22 22 22 22 23 23 21 21 22 21 20 20 20 20 19 19 20 19 19 20 20 21 21
14 15 15 15 16 16 17 17 18 19 19 19 19 19 20 20 20 21 21 21 22 22 22 22 22 22 22 21 21 21 21 20 20 19 19 18 18 19 19 20 21 21 21 21
15 15 15 16 17 17 17 17 18 19 19 19 19 20 20 20 20 21 21 22 22 21 23 23 23 22 21 21 20 20 20 19 19 19 18 18 19 19 19 20 20 21 21 22
16 16 16 17 17 18 18 19 19 19 20 20 20 20 21 21 21 22 22 23 23 23 23 23 22 22 21 21 20 20 19 19 19 19 19 19 19 19 19 20 20 21 21 21
16 17 18 19 19 19 20 20 20 20 21 21 20 21 21 22 23 23 23 23 23 23 23 23 22 21 21 20 20 20 20 19 18 18 18 18 18 19 19 19 19 19 18 18
17 18 19 21 21 21 21 21 21 21 22 21 21 21 22 22 23 23 23 23 23 23 22 22 21 20 21 20 20 20 20 19 18 18 18 18 17 17 18 18 17 17 16 17
19 20 20 22 22 22 21 22 22 22 22 22 22 22 22 23 23 23 23 23 23 22 22 21 21 21 20 20 20 20 19 18 17 17 17 17 16 16 16 16 16 16 16 17
20 20 21 22 22 22 22 22 22 23 23 23 22 22 22 22 23 23 23 22 22 22 22 22 21 21 21 20 19 19 18 17 17 17 17 16 15 15 15 15 15 16 16 16
20 20 21 22 22 22 23 23 23 23 23 23 23 23 23 23 23 23 23 23 22 21 21 20 20 20 20 19 18 17 16 16 16 16 15 15 15 14 14 15 15 15 16 16
21 21 21 21 22 22 23 23 24 24 24 23 23 23 23 23 23 23 23 22 21 20 20 19 19 19 19 18 17 16 16 15 14 14 14 14 14 14 15 15 15 15 16 16
21 21 22 22 23 23 24 24 24 24 24 24 24 23 24 23 23 22 22 21 20 19 19 18 18 18 17 16 16 15 14 14 13 13 14 14 14 15 15 15 16 17 16 16
22 22 23 23 24 24 24 25 25 24 24 24 24 23 23 23 22 21 20 19 18 17 17 16 17 17 16 16 15 14 14 14 13 13 13 13 14 14 14 15 15 16 16 16
23 23 23 24 24 25 25 25 25 24 24 24 24 24 23 22 21 20 20 19 18 17 17 17 16 16 16 15 14 14 13 13 13 13 12 13 13 14 13 14 15 15 15 15
23 23 23 24 25 25 25 25 24 24 24 24 23 23 22 21 21 20 18 17 17 17 16 16 16 15 14 14 14 13 13 13 12 12 12 12 12 11 11 12 13 14 14 14
24 24 24 24 25 26 25 24 24 24 23 23 23 22 22 21 20 19 17 16 16 16 15 14 14 14 13 13 13 12 12 12 11 11 11 11 10 10 10 10 11 12 13 14
25 25 25 25 25 25 25 24 24 23 23 22 22 21 21 20 19 17 16 15 15 15 14 14 13 13 13 12 12 11 11 10 10 10 10 10 9 8 8 10 11 12 13 14
25 25 25 25 25 25 25 24 23 23 22 21 21 21 20 19 18 17 15 15 15 15 15 14 14 13 13 12 11 10 9 9 9 9 9 8 7 7 8 9 10 11 12 13
26 25 26 26 26 25 24 24 23 22 21 20 20 20 19 18 17 17 16 15 15 15 14 14 13 13 12 11 10 9 9 9 8 8 7 6 6 7 8 9 10 11 12 13
26 26 26 26 26 25 25 24 23 22 21 20 20 20 19 18 17 16 15 15 15 15 14 13 12 12 11 9 8 7 7 7 7 6 6 6 6 6 7 9 10 11 12 13
27 26 26 26 26 25 25 24 23 22 21 21 20 20 18 17 17 16 15 14 14 13 12 11 10 10 9 8 7 7 7 7 7 6 6 6 6 7 8 9 10 11 11 13
27 26 26 26 26 25 24 23 23 22 21 20 20 19 18 17 15 14 14 14 13 12 11 10 9 8 8 8 8 8 7 7 7 7 6 7 7 7 8 9 10 11 12 13
28 27 26 26 25 24 23 23 22 21 20 19 18 17 16 15 14 14 14 14 13 12 11 10 9 8 8 8 8 8 7 7 6 6 7 7 7 8 9 10 10 10 11 13
27 26 25 25 24 23 22 22 21 20 19 18 17 15 15 15 14 14 13 13 12 11 10 10 9 9 8 8 8 8 7 7 7 7 7 7 8 9 9 10 9 10 11 12
27 26 25 24 23 23 22 21 20 20 18 17 16 15 15 15 14 14 13 12 12 11 10 9 9 9 8 8 8 7 7 7 7 7 7 7 8 9 9 9 9 10 10 11
27 26 25 24 23 23 22 21 20 19 18 17 16 16 15 15 15 14 13 13 12 11 11 9 9 9 8 8 8 7 7 7 7 7 8 8 8 8 9 9 8 9 10 11
27 26 26 25 24 24 23 22 21 20 19 17 17 16 16 15 15 14 14 13 12 12 11 11 10 9 9 9 8 8 7 7 7 7 8 8 8 8 8 7 7 8 9 11
27 26 25 25 24 24 23 22 22 21 19 18 18 18 17 16 16 15 14 13 13 12 12 12 11 10 10 9 9 8 7 7 7 7 8 8 8 8 7 7 7 8 10 11
Wind_Direction
314 314 315 316 317 318 317 315 315 313 310 308 307 307 308 311 312 313 315 314 314 314 313 312 311 312 313 312 310 310 310 307 307 308 310 307 305 305 305 306 307 306 307 308
316 316 317 319 320 318 318 316 318 317 314 312 311 309 310 312 313 314 315 315 315 314 314 314 313 313 314 312 310 310 309 308 308 310 311 309 309 308 307 306 305 306 306 307
317 316 317 320 321 319 317 318 318 317 316 314 311 310 311 312 311 310 313 314 316 316 316 316 316 315 315 314 313 313 312 311 310 310 310 309 309 307 308 307 306 306 305 306
316 315 316 319 321 320 319 316 316 315 315 314 311 310 310 310 311 310 311 312 314 315 315 315 315 315 315 315 316 316 315 315 314 313 312 310 310 309 309 309 309 307 305 305
312 313 314 317 320 319 318 317 316 316 316 315 311 310 310 310 311 311 310 311 312 313 314 315 315 316 317 318 318 316 316 316 316 316 315 313 313 314 314 313 312 312 310 309
310 312 312 314 318 317 315 315 315 316 316 315 311 309 309 309 311 309 309 311 312 313 313 315 317 318 319 319 317 316 316 316 316 316 316 316 316 317 318 317 317 316 315 313
309 312 312 313 315 314 314 314 314 315 316 315 314 311 310 310 311 311 310 311 312 313 313 314 317 318 319 318 318 317 317 317 318 318 317 318 318 320 321 322 322 322 320 319
307 310 310 311 313 313 312 312 312 314 315 315 313 312 311 311 311 312 311 311 311 312 312 314 316 318 320 319 319 318 318 318 319 319 319 321 323 325 327 327 326 326 325 324
303 305 306 308 310 311 312 312 312 313 314 314 313 312 312 310 310 311 311 311 311 311 312 314 316 318 320 321 321 322 322 322 321 320 321 324 327 330 330 328 328 328 328 326
301 303 303 304 307 309 310 312 313 313 314 314 314 314 313 312 311 313 312 311 308 308 309 312 316 319 320 321 321 321 323 324 322 322 323 326 330 332 332 330 330 330 331 332
298 301 301 303 305 308 310 312 313 313 314 314 314 315 314 312 312 312 313 311 309 306 307 310 315 318 321 323 322 322 325 326 325 325 326 327 329 331 331 332 332 331 332 335
299 299 300 302 305 306 308 310 311 312 312 313 312 312 314 313 313 314 313 312 310 307 307 311 314 316 318 320 322 324 325 324 325 327 327 328 331 334 334 335 337 338 337 337
297 299 300 302 304 305 307 308 310 310 311 311 311 312 314 315 315 315 313 310 308 308 307 309 313 313 314 317 320 322 324 323 323 328 329 329 331 334 336 339 342 344 346 345
295 298 299 302 304 305 306 307 308 308 309 310 310 311 312 313 315 317 315 310 307 309 309 308 311 314 315 316 318 321 323 323 324 326 327 328 330 334 340 344 348 351 353 353
294 295 297 301 303 304 304 304 304 305 307 308 308 310 310 310 313 315 314 311 308 308 310 310 312 314 314 316 317 319 323 327 328 326 328 331 333 337 344 351 355 357 357 357
294 295 298 300 302 302 303 303 302 302 303 305 307 308 310 311 312 313 313 312 310 309 310 311 313 313 312 313 313 314 320 327 330 328 331 337 343 350 354 355 356 358 359 360
292 295 298 299 300 300 301 302 303 303 302 303 305 308 308 309 310 311 309 309 311 311 308 308 310 309 309 309 310 312 317 324 330 333 336 341 350 357 358 357 359 1 2 2
290 294 296 298 298 298 299 300 301 301 301 301 303 306 306 305 304 305 306 306 309 310 308 304 303 304 305 307 309 312 316 320 329 335 339 346 353 359 1 3 3 3 2 2
289 292 294 295 296 296 296 297 298 298 298 298 298 299 300 301 300 301 302 305 304 305 306 304 302 301 301 304 302 302 309 317 325 332 335 343 349 353 356 360 360 358 357 357
286 290 292 293 293 293 293 294 294 295 296 295 293 293 294 297 297 297 298 299 301 303 303 302 300 298 296 296 295 298 304 312 318 324 331 334 335 340 345 348 350 352 354 354
286 289 291 292 291 290 290 291 291 292 293 292 289 289 291 294 293 294 295 296 299 299 297 295 295 294 291 290 293 297 302 306 310 313 317 321 324 327 331 336 341 346 349 351
285 286 287 288 287 288 289 289 289 290 290 288 286 286 289 290 290 292 292 293 294 292 290 289 288 289 289 289 291 295 297 296 298 303 306 309 313 319 326 331 335 341 346 350
282 284 285 285 284 284 285 287 287 287 286 284 282 283 285 285 285 287 288 289 290 285 282 282 285 286 284 284 287 291 294 293 291 293 298 301 305 312 320 326 331 338 346 350
280 281 280 280 280 280 281 283 284 284 283 281 279 279 281 281 281 281 281 285 285 278 276 281 281 279 278 282 287 289 290 290 291 290 292 296 301 305 312 320 326 334 343 347
277 277 275 275 276 276 278 280 279 279 278 276 274 274 277 277 277 276 275 276 277 275 275 275 275 276 277 280 283 284 285 289 292 292 291 293 299 305 310 316 323 330 339 344
275 274 274 274 274 275 275 276 275 275 273 272 271 271 274 274 273 272 271 270 271 270 267 267 268 269 273 276 281 282 281 284 283 288 291 293 299 305 308 312 318 325 334 341
273 273 272 273 273 273 272 271 271 271 270 270 269 269 269 269 268 266 263 265 269 268 267 265 264 267 271 274 275 275 273 274 279 285 290 294 299 308 313 316 320 326 332 339
Height
5832 5830 5828 5826 5824 5821 5819 5817 5814 5812 5808 5805 5803 5800 5797 5795 5792 5788 5786 5783 5779 5776 5773 5770 5767 5764 5761 5758 5756 5753 5750 5748 5745 5743 5740 5737 5735 5732 5730 5727 5725 5722 5718 5715
5829 5827 5825 5822 5820 5818 5815 5813 5810 5807 5804 5801 5798 5796 5793 5790 5788 5785 5782 5778 5775 5772 5768 5765 5762 5759 5756 5753 5751 5748 5745 5743 5740 5737 5735 5732 5729 5727 5725 5722 5719 5716 5713 5710
5826 5824 5821 5819 5817 5814 5812 5809 5806 5803 5801 5797 5794 5792 5789 5786 5783 5780 5777 5774 5771 5768 5764 5761 5757 5754 5751 5748 5745 5743 5740 5737 5735 5732 5729 5726 5724 5722 5719 5717 5714 5711 5708 5705
5822 5821 5818 5818 5813 5811 5808 5805 5802 5799 5796 5793 5790 5787 5785 5782 5779 5776 5773 5770 5766 5763 5760 5756 5753 5749 5746 5743 5740 5738 5735 5732 5730 5727 5724 5721 5719 5716 5714 5711 5708 5705 5702 5699
5819 5816 5814 5812 5809 5806 5803 5800 5797 5795 5792 5789 5785 5783 5780 5777 5774 5771 5768 5765 5761 5758 5755 5751 5748 5745 5741 5738 5736 5733 5730 5728 5725 5722 5719 5716 5714 5711 5708 5706 5703 5700 5697 5694
5814 5812 5810 5808 5805 5801 5800 5796 5793 5790 5787 5784 5781 5779 5776 5772 5769 5766 5763 5759 5756 5753 5750 5747 5743 5740 5737 5734 5731 5728 5725 5723 5720 5717 5715 5712 5709 5706 5704 5701 5698 5695 5692 5689
5810 5807 5805 5802 5799 5797 5796 5793 5788 5785 5782 5779 5776 5773 5771 5767 5764 5761 5758 5754 5751 5748 5744 5741 5739 5735 5732 5729 5726 5723 5720 5718 5715 5713 5710 5707 5705 5702 5699 5696 5693 5691 5688 5685
5805 5803 5802 5797 5794 5793 5790 5787 5783 5780 5777 5774 5771 5768 5765 5762 5759 5756 5752 5749 5746 5743 5740 5737 5734 5731 5728 5724 5721 5718 5715 5713 5711 5708 5706 5703 5700 5698 5695 5692 5690 5687 5684 5680
5801 5800 5795 5792 5789 5787 5784 5781 5778 5776 5773 5769 5766 5763 5760 5757 5754 5750 5747 5744 5741 5738 5735 5733 5730 5727 5724 5720 5717 5714 5712 5709 5707 5704 5702 5699 5697 5694 5692 5689 5686 5683 5680 5677
5794 5792 5789 5787 5784 5781 5779 5776 5773 5771 5767 5764 5761 5758 5755 5752 5749 5745 5742 5739 5736 5733 5731 5729 5726 5723 5719 5716 5713 5711 5708 5706 5703 5701 5698 5696 5693 5691 5688 5686 5683 5680 5677 5674
5789 5787 5784 5781 5779 5776 5773 5771 5768 5765 5762 5759 5756 5753 5750 5746 5743 5740 5737 5734 5731 5729 5727 5724 5722 5719 5715 5713 5710 5708 5705 5702 5700 5697 5695 5693 5690 5688 5685 5683 5680 5677 5673 5670
5783 5781 5778 5776 5773 5771 5768 5765 5763 5760 5757 5754 5751 5748 5744 5741 5738 5735 5732 5730 5727 5725 5723 5720 5718 5715 5712 5709 5707 5705 5702 5700 5697 5695 5692 5690 5688 5685 5683 5680 5677 5674 5670 5667
5776 5774 5772 5770 5767 5765 5762 5759 5757 5754 5751 5748 5745 5742 5739 5736 5733 5730 5728 5725 5723 5721 5718 5716 5713 5711 5709 5706 5704 5701 5699 5697 5694 5692 5690 5687 5685 5683 5680 5678 5675 5672 5669 5665
5769 5767 5765 5763 5761 5758 5756 5753 5750 5748 5745 5742 5740 5737 5734 5731 5728 5726 5723 5721 5718 5716 5714 5712 5710 5708 5705 5703 5701 5698 5696 5694 5691 5689 5687 5685 5682 5680 5678 5676 5673 5670 5667 5664
5762 5761 5759 5757 5754 5752 5749 5747 5744 5742 5739 5737 5734 5732 5729 5726 5724 5721 5719 5717 5715 5713 5710 5708 5706 5704 5702 5700 5698 5695 5693 5691 5689 5687 5684 5682 5680 5678 5677 5675 5672 5669 5667 5664
5754 5753 5752 5750 5747 5745 5743 5740 5738 5736 5734 5731 5729 5727 5724 5722 5719 5717 5715 5713 5711 5709 5707 5705 5703 5701 5699 5697 5695 5693 5691 5689 5687 5685 5683 5681 5679 5677 5676 5674 5671 5669 5666 5663
5747 5746 5744 5742 5740 5738 5736 5734 5732 5730 5728 5726 5724 5722 5719 5717 5715 5713 5711 5709 5707 5705 5703 5701 5699 5698 5696 5694 5692 5691 5689 5687 5685 5683 5681 5680 5678 5677 5675 5673 5671 5669 5666 5663
5739 5738 5736 5735 5733 5731 5729 5727 5725 5724 5722 5720 5718 5716 5714 5712 5710 5709 5707 5705 5703 5701 5699 5698 5696 5695 5693 5691 5690 5688 5687 5685 5683 5682 5680 5679 5678 5677 5675 5673 5670 5668 5665 5662
5731 5730 5728 5727 5725 5724 5722 5720 5719 5717 5715 5713 5712 5710 5709 5707 5705 5704 5702 5700 5699 5697 5696 5694 5693 5691 5690 5689 5688 5686 5685 5683 5682 5680 5679 5678 5677 5676 5674 5672 5670 5667 5665 5662
5722 5721 5720 5719 5717 5716 5715 5713 5712 5710 5709 5707 5705 5704 5703 5701 5700 5699 5697 5696 5694 5693 5691 5690 5689 5688 5687 5686 5685 5684 5683 5682 5680 5679 5678 5677 5676 5674 5673 5671 5669 5666 5664 5661
5713 5713 5711 5710 5709 5708 5707 5706 5704 5703 5702 5700 5699 5698 5697 5696 5695 5694 5692 5691 5690 5689 5688 5687 5686 5685 5685 5684 5683 5682 5681 5680 5678 5677 5676 5675 5674 5673 5671 5669 5667 5665 5662 5660
5705 5704 5703 5702 5701 5700 5699 5698 5697 5696 5695 5694 5693 5692 5691 5691 5690 5689 5688 5687 5686 5684 5684 5683 5683 5682 5681 5681 5680 5679 5678 5677 5676 5675 5674 5673 5672 5671 5670 5668 5666 5663 5661 5658
5696 5695 5694 5693 5693 5692 5692 5691 5690 5689 5688 5687 5686 5686 5686 5685 5684 5684 5683 5682 5681 5680 5680 5680 5679 5679 5678 5678 5677 5677 5675 5674 5674 5673 5672 5671 5670 5669 5667 5666 5664 5662 5659 5656
5686 5686 5686 5685 5684 5684 5684 5684 5683 5682 5682 5681 5680 5680 5680 5679 5679 5678 5678 5677 5677 5676 5676 5676 5676 5676 5675 5675 5674 5673 5672 5672 5671 5670 5669 5668 5667 5666 5665 5663 5661 5660 5657 5655
5677 5677 5677 5677 5677 5676 5676 5676 5676 5676 5675 5675 5675 5674 5674 5674 5673 5673 5673 5673 5673 5672 5673 5673 5672 5672 5672 5671 5671 5670 5669 5669 5668 5667 5666 5665 5664 5663 5662 5661 5659 5657 5655 5653
5669 5669 5668 5668 5668 5668 5668 5668 5668 5668 5668 5668 5668 5668 5668 5668 5668 5668 5668 5668 5668 5668 5668 5668 5668 5668 5668 5668 5667 5667 5666 5665 5665 5664 5663 5662 5661 5660 5659 5658 5656 5655 5653 5650
5659 5659 5659 5659 5659 5659 5659 5660 5660 5660 5661 5661 5661 5661 5661 5661 5662 5662 5662 5663 5663 5663 5664 5664 5664 5664 5664 5664 5664 5663 5663 5662 5662 5661 5660 5659 5658 5657 5656 5655 5654 5652 5650 5648